Wheeling, WV

7:00 PM EDT on October 16, 2017 (GMT -0400)
Wheeling-Ohio County

Weather History for KHLG - December, 2012

Change the Weather History Date:

Friday, December 21, 2012

  Actual Average Record
Temperature  
Mean Temperature 34 °F 31 °F  
Max Temperature 39 °F 38 °F 64 °F (1949)
Min Temperature 29 °F 24 °F 4 °F (2008)
Degree Days  
Heating Degree Days 31 34  
Month to date heating degree days 443 648  
Since 1 July heating degree days 1668 1776  
Cooling Degree Days 0    
Month to date cooling degree days 0  
Year to date cooling degree days 996  
Moisture  
Dew Point 26 °F    
Average Humidity 76    
Maximum Humidity 92    
Minimum Humidity 59    
Precipitation  
Precipitation 0.01 in 0.09 in 0.85 in (2011)
Month to date precipitation 4.40 1.54  
Sea Level Pressure  
Sea Level Pressure 29.48 in    
Wind  
Wind Speed 17 mph (WSW)    
Max Wind Speed 31 mph    
Max Gust Speed 40 mph    
Visibility 4 miles    
Events Fog , Snow    
T = Trace of Precipitation, MM = Missing Value Source: NWS Daily Summary

Daily Weather History Graph

Daily Weather History Graph

Search for Another Location

Airport or City:

Trip Planner

Search our weather history database for the weather conditions in past years. The results will help you decide how hot, cold, wet, or windy it might be!

Date:

Astronomy

Dec. 21, 2012 Rise Set
Actual Time 7:41 AM EST 5:00 PM EST
Civil Twilight 7:11 AM EST 5:31 PM EST
Nautical Twilight 6:36 AM EST 6:05 PM EST
Astronomical Twilight 6:03 AM EST 6:38 PM EST
Moon 12:46 PM EST (12/21) 1:26 AM EST (12/21)
Length of Visible Light 10h 20m
Length of Day
9h 18m
Waxing Gibbous, 64% of the Moon is Illuminated
Dec 21
Waxing Gibbous
Dec 28
Full
Jan 4
Last Quarter
Jan 11
New
Jan 18
First Quarter

Hourly Weather History & Observations

Time (EST) Temp. Windchill Dew Point Humidity Pressure Visibility Wind Dir Wind Speed Gust Speed Precip Events Conditions
12:53 AM 37.0 °F 28.5 °F 27.0 °F 67% 29.45 in 10.0 mi SW 13.8 mph 28.8 mph 0.00 in   Overcast
1:53 AM 36.0 °F 26.0 °F 26.1 °F 67% 29.45 in 10.0 mi SW 17.3 mph 28.8 mph 0.00 in   Overcast
2:53 AM 35.1 °F 23.3 °F 23.0 °F 61% 29.45 in 10.0 mi WSW 23.0 mph 40.3 mph N/A   Overcast
3:25 AM 33.8 °F 22.8 °F 24.8 °F 70% 29.43 in 10.0 mi WSW 18.4 mph 25.3 mph 0.00 in   Overcast
3:53 AM 33.1 °F 23.0 °F 25.0 °F 72% 29.45 in 9.0 mi SW 15.0 mph 28.8 mph 0.00 in Snow Light Snow
4:38 AM 33.8 °F 23.5 °F 23.0 °F 65% 29.41 in 10.0 mi WSW 16.1 mph 26.5 mph 0.00 in   Overcast
4:53 AM 33.1 °F 23.0 °F 23.0 °F 66% 29.43 in 10.0 mi WSW 15.0 mph 31.1 mph 0.00 in   Overcast
5:53 AM 32.0 °F 20.1 °F 23.0 °F 69% 29.42 in 10.0 mi SW 19.6 mph 27.6 mph 0.01 in   Overcast
6:53 AM 30.9 °F 19.8 °F 24.1 °F 76% 29.42 in 8.0 mi SW 16.1 mph 28.8 mph 0.00 in Snow Light Snow
7:53 AM 30.0 °F 18.7 °F 24.1 °F 79% 29.41 in 7.0 mi SW 16.1 mph 27.6 mph 0.00 in Snow Light Snow
8:53 AM 30.0 °F 19.1 °F 23.0 °F 75% 29.41 in 10.0 mi SW 15.0 mph 25.3 mph 0.00 in Snow Light Snow
9:23 AM 30.2 °F 20.2 °F 23.0 °F 75% 29.39 in 2.0 mi SW 12.7 mph 31.1 mph 0.00 in Snow Light Snow
9:33 AM 28.4 °F 16.2 °F 23.0 °F 80% 29.39 in 1.2 mi SW 17.3 mph 32.2 mph 0.00 in Snow Light Snow
9:53 AM 28.9 °F 16.1 °F 24.1 °F 82% 29.42 in 1.5 mi SW 19.6 mph 28.8 mph 0.00 in Snow Light Snow
10:20 AM 28.4 °F 17.0 °F 24.8 °F 86% 29.40 in 2.0 mi WSW 15.0 mph 27.6 mph 0.00 in Snow Light Snow
10:25 AM 28.4 °F 15.4 °F 24.8 °F 86% 29.40 in 3.0 mi SW 19.6 mph 29.9 mph 0.00 in Snow Light Snow
10:53 AM 30.0 °F 16.9 °F 24.1 °F 79% 29.43 in 3.0 mi WSW 21.9 mph 33.4 mph 0.00 in Snow Light Snow
11:05 AM 30.2 °F 18.5 °F 24.8 °F 80% 29.39 in 6.0 mi WSW 17.3 mph 33.4 mph 0.00 in Snow Light Snow
11:34 AM 30.2 °F 17.4 °F 24.8 °F 80% 29.39 in 3.0 mi SW 20.7 mph 31.1 mph 0.00 in Snow Light Snow
11:53 AM 30.0 °F 17.9 °F 25.0 °F 82% 29.42 in 5.0 mi WSW 18.4 mph 32.2 mph 0.00 in Snow Light Snow
12:13 PM 30.2 °F 18.1 °F 24.8 °F 80% 29.39 in 8.0 mi SW 18.4 mph 28.8 mph 0.00 in   Overcast
12:49 PM 30.2 °F 18.9 °F 26.6 °F 86% 29.38 in 2.5 mi WSW 16.1 mph 25.3 mph 0.00 in Snow Light Snow
12:53 PM 30.0 °F 19.1 °F 27.0 °F 88% 29.42 in 2.0 mi WSW 15.0 mph 25.3 mph 0.00 in Snow Light Snow
1:07 PM 30.2 °F 18.5 °F 26.6 °F 86% 29.38 in 3.0 mi WSW 17.3 mph 25.3 mph 0.00 in Snow Light Snow
1:15 PM 30.2 °F 18.5 °F 26.6 °F 86% 29.39 in 1.8 mi WSW 17.3 mph 27.6 mph 0.00 in Snow Light Snow
1:29 PM 30.2 °F 19.3 °F 26.6 °F 86% 29.38 in 2.5 mi WSW 15.0 mph 28.8 mph 0.00 in Snow Light Snow
1:53 PM 30.9 °F 18.7 °F 27.0 °F 85% 29.43 in 2.0 mi WSW 19.6 mph 29.9 mph 0.00 in Snow Light Snow
2:01 PM 30.2 °F 18.5 °F 26.6 °F 86% 29.39 in 1.2 mi WSW 17.3 mph 29.9 mph 0.00 in Snow Light Snow
2:10 PM 30.2 °F 18.1 °F 26.6 °F 86% 29.40 in 1.0 mi WSW 18.4 mph 31.1 mph 0.00 in Snow Light Snow
2:15 PM 30.2 °F 17.8 °F 28.4 °F 93% 29.40 in 0.8 mi WSW 19.6 mph 28.8 mph 0.00 in Snow Light Snow
2:21 PM 30.2 °F 17.8 °F 28.4 °F 93% 29.40 in 0.5 mi WSW 19.6 mph 29.9 mph 0.00 in Fog , Snow Snow
2:29 PM 30.2 °F 17.8 °F 28.4 °F 93% 29.41 in 0.5 mi West 19.6 mph 31.1 mph 0.00 in Fog , Snow Snow
2:36 PM 30.2 °F 17.4 °F 28.4 °F 93% 29.42 in 0.8 mi West 20.7 mph 28.8 mph 0.00 in Snow Light Snow
2:46 PM 30.2 °F 19.3 °F 28.4 °F 93% 29.43 in 0.5 mi West 15.0 mph 24.2 mph 0.00 in Fog , Snow Snow
2:50 PM 30.2 °F 18.9 °F 28.4 °F 93% 29.43 in 0.5 mi West 16.1 mph 23.0 mph 0.00 in Fog , Snow Snow
2:53 PM 30.9 °F 19.1 °F 28.9 °F 92% 29.47 in 0.2 mi West 18.4 mph 26.5 mph 0.00 in Fog , Snow Snow
3:15 PM 30.2 °F 18.5 °F 28.4 °F 93% 29.45 in 0.8 mi West 17.3 mph 25.3 mph 0.00 in Snow Light Snow
3:21 PM 30.2 °F 19.3 °F 28.4 °F 93% 29.45 in 0.5 mi West 15.0 mph 25.3 mph 0.00 in Fog , Snow Snow
3:28 PM 30.2 °F 20.8 °F 28.4 °F 93% 29.45 in 0.5 mi West 11.5 mph 21.9 mph 0.00 in Fog , Snow Snow
3:31 PM 30.2 °F 18.9 °F 28.4 °F 93% 29.46 in 0.8 mi West 16.1 mph 21.9 mph 0.00 in Snow Light Snow
3:34 PM 30.2 °F 18.5 °F 28.4 °F 93% 29.46 in 1.0 mi West 17.3 mph 24.2 mph 0.00 in Snow Light Snow
3:45 PM 30.2 °F 18.9 °F 26.6 °F 86% 29.47 in 3.0 mi West 16.1 mph 26.5 mph 0.00 in Snow Light Snow
3:53 PM 30.9 °F 19.4 °F 25.0 °F 79% 29.51 in 5.0 mi West 17.3 mph 25.3 mph 0.00 in Snow Light Snow
4:06 PM 30.2 °F 19.3 °F 24.8 °F 80% 29.48 in 9.0 mi West 15.0 mph 26.5 mph 0.00 in   Overcast
4:28 PM 30.2 °F 18.9 °F 24.8 °F 80% 29.50 in 5.0 mi West 16.1 mph 21.9 mph 0.00 in Snow Light Snow
4:49 PM 30.2 °F 18.9 °F 26.6 °F 86% 29.51 in 1.8 mi West 16.1 mph 21.9 mph 0.00 in Snow Light Snow
4:53 PM 30.0 °F 19.1 °F 26.1 °F 85% 29.55 in 1.5 mi West 15.0 mph 21.9 mph 0.00 in Snow Light Snow
5:08 PM 30.2 °F 19.3 °F 26.6 °F 86% 29.52 in 2.0 mi West 15.0 mph 23.0 mph 0.00 in Snow Light Snow
5:17 PM 30.2 °F 19.3 °F 26.6 °F 86% 29.53 in 3.0 mi West 15.0 mph 25.3 mph 0.00 in Snow Light Snow
5:34 PM 30.2 °F 17.8 °F 24.8 °F 80% 29.55 in 3.0 mi West 19.6 mph 31.1 mph 0.00 in Snow Light Snow
5:53 PM 30.0 °F 19.5 °F 25.0 °F 82% 29.60 in 8.0 mi West 13.8 mph 23.0 mph 0.00 in Snow Light Snow
6:53 PM 30.0 °F 18.7 °F 25.0 °F 82% 29.64 in 9.0 mi West 16.1 mph 21.9 mph 0.00 in Snow Light Snow
7:53 PM 30.9 °F 20.2 °F 24.1 °F 76% 29.67 in 8.0 mi West 15.0 mph 27.6 mph 0.00 in Snow Light Snow
8:31 PM 30.2 °F 18.9 °F 24.8 °F 80% 29.64 in 2.0 mi West 16.1 mph 27.6 mph 0.00 in Snow Light Snow
8:45 PM 30.2 °F 20.2 °F 24.8 °F 80% 29.64 in 6.0 mi West 12.7 mph 23.0 mph 0.00 in Snow Light Snow
8:53 PM 30.0 °F 17.9 °F 25.0 °F 82% 29.69 in 9.0 mi West 18.4 mph 24.2 mph 0.00 in   Overcast
9:53 PM 30.9 °F 21.7 °F 25.0 °F 79% 29.72 in 6.0 mi West 11.5 mph 19.6 mph 0.00 in Snow Light Snow
10:53 PM 30.0 °F 21.1 °F 26.1 °F 85% 29.74 in 3.0 mi West 10.4 mph 21.9 mph 0.00 in Snow Light Snow
11:13 PM 30.2 °F 18.5 °F 26.6 °F 86% 29.71 in 2.5 mi West 17.3 mph 25.3 mph 0.00 in Snow Light Snow
11:40 PM 30.2 °F 20.8 °F 26.6 °F 86% 29.72 in 1.5 mi West 11.5 mph 24.2 mph 0.00 in Snow Light Snow
11:53 PM 30.0 °F 18.7 °F 27.0 °F 88% 29.77 in 2.0 mi West 16.1 mph 26.5 mph 0.00 in Snow Light Snow